Weather History for Grand Junction, CO

Change the Weather History Date:

Monday, July 8, 2013

  Actual Average Record
Temperature  
Mean Temperature 78 °F 78 °F  
Max Temperature 96 °F 93 °F 104 °F (1989)
Min Temperature 60 °F 63 °F 54 °F (1906)
Degree Days  
Heating Degree Days 0 0  
Month to date heating degree days 0 0  
Since 1 June heating degree days 5 22  
Since 1 July heating degree days 0 0  
Cooling Degree Days 13 13  
Month to date cooling degree days 129 100  
Year to date cooling degree days 498 382  
Since 1 June cooling degree days 443 331  
Growing Degree Days 28 (Base 50)    
Moisture  
Dew Point 48 °F    
Average Humidity 51    
Maximum Humidity 90    
Minimum Humidity 11    
Precipitation  
Precipitation 0.00 in 0.02 in 0.51 in (1950)
Month to date precipitation 0.05 0.12  
Year to date precipitation 3.47 4.41  
Snow  
Snow 0.00 in 0.00 in 0.00 in (2002)
Month to date snowfall 0.0 0.0  
Since 1 June snowfall 0.0 0.0  
Since 1 July snowfall 0.0 0.0  
Snow Depth 0.00 in    
Sea Level Pressure  
Sea Level Pressure 29.90 in    
Wind  
Wind Speed 5 mph (NW)    
Max Wind Speed 17 mph    
Max Gust Speed 24 mph    
Visibility 10 miles    
Events      
T = Trace of Precipitation, MM = Missing Value Source: NWS Daily Summary

Daily Weather History Graph

Daily Weather History Graph

Search for Another Location

Airport:

Trip Planner

Search our weather history database for the weather conditions in past years. The results will help you decide how hot, cold, wet, or windy it might be!

Date:

Astronomy

Jul. 08, 2013 Rise Set
Actual Time 5:55 AM MDT 8:42 PM MDT
Civil Twilight 5:24 AM MDT 9:14 PM MDT
Nautical Twilight 4:44 AM MDT 9:53 PM MDT
Astronomical Twilight 3:58 AM MDT 10:39 PM MDT
Moon 6:27 AM MDT (7/8) 8:47 PM MDT (7/8)
Length of Visible Light 15h 50m
Length of Day
14h 46m
New Moon, 0% of the Moon is Illuminated
Jul 8
New Moon
Jul 15
First Quarter
Jul 22
Full
Jul 29
Last Quarter
Aug 6
New

Hourly Weather History & Observations

Time (MDT) Temp. Heat Index Dew Point Humidity Pressure Visibility Wind Dir Wind Speed Gust Speed Precip Events Conditions
12:53 AM 64.9 °F - 60.1 °F 84% 29.89 in 10.0 mi Calm Calm - N/A   Clear
1:53 AM 63.0 °F - 59.0 °F 87% 29.90 in 10.0 mi SE 5.8 mph - N/A   Clear
2:53 AM 62.1 °F - 57.0 °F 84% 29.89 in 10.0 mi ENE 8.1 mph - N/A   Clear
3:53 AM 63.0 °F - 55.9 °F 78% 29.91 in 10.0 mi East 8.1 mph - N/A   Clear
4:53 AM 62.1 °F - 55.0 °F 78% 29.92 in 10.0 mi East 4.6 mph - N/A   Clear
5:53 AM 61.0 °F - 55.9 °F 83% 29.94 in 10.0 mi SSW 3.5 mph - N/A   Clear
6:53 AM 63.0 °F - 55.9 °F 78% 29.97 in 10.0 mi ENE 4.6 mph - N/A   Clear
7:53 AM 70.0 °F - 57.0 °F 63% 29.96 in 10.0 mi ENE 3.5 mph - N/A   Clear
8:53 AM 72.0 °F - 55.9 °F 57% 29.99 in 10.0 mi West 3.5 mph - N/A   Clear
9:53 AM 75.0 °F - 55.9 °F 51% 29.99 in 10.0 mi WSW 4.6 mph - N/A   Clear
10:53 AM 79.0 °F - 53.1 °F 40% 29.99 in 10.0 mi Calm Calm - N/A   Partly Cloudy
11:53 AM 82.9 °F 81.8 °F 53.1 °F 36% 29.98 in 10.0 mi Calm Calm - N/A   Partly Cloudy
12:53 PM 89.1 °F - 50.0 °F 26% 29.94 in 10.0 mi West 8.1 mph - N/A   Scattered Clouds
1:53 PM 91.0 °F - 48.9 °F 23% 29.91 in 10.0 mi WNW 9.2 mph - N/A   Scattered Clouds
2:53 PM 93.0 °F - 43.0 °F 18% 29.88 in 10.0 mi Calm Calm - N/A   Scattered Clouds
3:53 PM 95.0 °F - 33.1 °F 11% 29.86 in 10.0 mi WNW 13.8 mph 21.9 mph N/A   Scattered Clouds
4:53 PM 95.0 °F - 34.0 °F 12% 29.83 in 10.0 mi Variable 5.8 mph 17.3 mph N/A   Scattered Clouds
5:53 PM 95.0 °F - 34.0 °F 12% 29.83 in 10.0 mi West 9.2 mph - N/A   Clear
6:53 PM 91.0 °F - 37.0 °F 15% 29.83 in 10.0 mi WNW 6.9 mph - N/A   Scattered Clouds
7:53 PM 89.1 °F - 39.0 °F 17% 29.82 in 10.0 mi WNW 6.9 mph - N/A   Clear
8:53 PM 84.0 °F - 41.0 °F 22% 29.85 in 10.0 mi Calm Calm - N/A   Clear
9:53 PM 84.0 °F - 39.0 °F 20% 29.87 in 10.0 mi North 9.2 mph - N/A   Clear
10:53 PM 82.0 °F - 39.0 °F 22% 29.87 in 10.0 mi NW 4.6 mph - N/A   Clear
11:53 PM 80.1 °F - 39.9 °F 24% 29.88 in 10.0 mi East 4.6 mph - N/A   Clear